Regional Weather Roundup
Issued by NWS Portland, ME

Home | Current Version | Previous Version | Text Only | Print | Product List | Glossary On
Versions: 1 2 3 4 5 6 7 8 9 10 11 12 13 14 15 16 17 18 19 20 21 22 23 24 25 26 27 28 29 30 31 32 33 34 35 36 37 38 39 40 41 42 43 44 45 46 47 48 49 50
000
ASUS41 KGYX 231110
RWRGYX
WEATHER ROUNDUP FOR MAINE AND NEW HAMPSHIRE
NATIONAL WEATHER SERVICE GRAY ME
600 AM EST THU FEB 23 2017

MEZ002-005-006-010-012-015-018-020-021-024-026-027-029-231200-
MAINE

CITY           SKY/WX    TMP DP  RH WIND       PRES   REMARKS
PORTLAND       PTCLDY    28  25  88 CALM      29.86S
SANFORD        CLEAR     24  23  96 CALM      29.86
BAR HARBOR     MOCLDY    24  23  96 CALM      29.88S
WISCASSET      FOG       28  25  88 CALM      29.88R VSB 1/4
ROCKLAND       FOG       27  27 100 CALM      29.87S VSB 1/4
FRYEBURG       PTCLDY    23  22  96 CALM      29.85S
LEWISTONAUBURN CLEAR     23  21  92 CALM      29.86S
AUGUSTA        PTCLDY    29  26  89 CALM      29.86R FOG
WATERVILLE     CLOUDY    28  27  93 CALM      29.83R
BANGOR         PTCLDY    25  24  96 S3        29.86S
GREENVILLE       N/A     35  30  82 E6        29.75F
MILLINOCKET    CLEAR     19  16  88 E3        29.82F
HOULTON        CLEAR     17  15  92 SW3       29.81S
PRESQUE ISLE   CLEAR     16  14  92 CALM      29.80S
FRENCHVILLE    CLEAR     26  23  88 SE7       29.74F
CARIBOU        CLEAR     22  19  89 CALM      29.77F FOG
$$

NHZ002-005-008-009-011-012-014-231200-
NEW HAMPSHIRE

CITY           SKY/WX    TMP DP  RH WIND       PRES   REMARKS
PORTSMOUTH     PTCLDY    29  28  94 CALM      29.85S
ROCHESTER      CLEAR     30  27  88 NW3       29.85S
NASHUA         CLEAR     32  30  92 CALM      29.86R
MANCHESTER     MOCLDY    33  29  85 CALM      29.85R
CONCORD        CLEAR     28  26  92 CALM      29.86R
LACONIA        CLOUDY    28  26  92 MISG      29.85S
PLYMOUTH       CLOUDY    27  26  98 CALM      29.86S
BERLIN         MOCLDY    23  19  85 CALM      29.82F
WHITEFIELD     CLOUDY    30  26  85 CALM      29.80F
JAFFREY        PTCLDY    32  31  96 S5        29.84S
KEENE          MOCLDY    31  30  96 SE3       29.87S
LEBANON        CLOUDY    31  29  92 CALM      29.84S
MT WASHINGTON  FOG       34  34 100 W43         N/A  VSB 0   WCI  18
$$

VTZ005-007-008-231200-
VERMONT

CITY           SKY/WX    TMP DP  RH WIND       PRES   REMARKS
ST JOHNSBURY     N/A     29  27  92 MISG      29.81F
MONTPELIER     MOCLDY    30  29  96 N3        29.82F
BURLINGTON     PTCLDY    47  37  68 SW3       29.76S
$$

MAZ007-012-024-CTZ003-RIZ002-NYZ038-NYZ072-231200-
SOUTHERN NEW ENGLAND AND NY

CITY           SKY/WX    TMP DP  RH WIND       PRES   REMARKS
BOSTON         PTCLDY    41  37  86 S9        29.87S
WORCESTER      CLOUDY    43  35  73 W10       29.84S
NANTUCKET      FOG       43  42  97 SW6       29.91S VSB 1/4
PROVIDENCE     PTCLDY    36  35  96 S3        29.88S
HARTFORD       PTCLDY    36  34  92 CALM      29.87S
ALBANY         MOCLDY    43  36  76 S3        29.83S
NEW YORK CITY  PTCLDY    42  38  85 NE6       29.89R
$$

ANZ081-ANZ082-ANZ150-NHZ014-MEZ023>029-231200-
COASTAL MARINE OBSERVATIONS

STATION/POSITION TIME  TEMP    WIND        PRES    WAVE
                       AIR SEA DIR/SP/G            HT/PER
                 (UTC) (F)     (DEG/KT/KT) (MB)    (FT/S)
MOUNT DESERT ROC 1100   39                 1011.7F
MATINICUS ROCK   1100   40     140/ 12/ 13 1010.7F
ISLE OF SHOALS   1100   37     240/  4/  5 1011.1R
JEFFREYS LEDGE   1006      43                N/A     4/ 8
CASHES LEDGE BUO 1050   41 42              1011.6F   3/ 9
GEORGES BANK BUO 1050   45 44              1014.6R   5/11
$$

.............KEY..............
   WCI - WIND CHILL
   TC  - TEMPERATURE IN CELSIUS
   VSB - VISIBILITY IN MILES
   HX  - HEAT INDEX
   FAIR- INDICATES FEW OR NO CLOUDS BELOW 12,000 FT, WITH NO
         SIGNIFICANT WEATHER AND/OR OBSTRUCTIONS TO VISIBILITY.





USA.gov is the U.S. government's official web portal to all federal, state and local government web resources and services.